• In Belgien
  • Länderverzeichnis
  • Für 7 Tage
  • Wassertemperatur
  • Satellitenkarten
  • Wetterkarte
  • Widgets
  • user-avatar
    Anmelden

    Stündliche Wetter Warna

    Heute, 22 Juni, Freitag

    Zeit Temperatur Niederschläge Wind Luftdruck Luftfeuchtigkeit
    00:00 +21°C° 0,2 mm 2 m/S 744 mmHg 82%
    01:00 +22°C° 0,2 mm 1 m/S 744 mmHg 82%
    02:00 +20°C° 0 mm 2 m/S 744 mmHg 80%
    03:00 +20°C° 0 mm 2 m/S 743 mmHg 80%
    04:00 +20°C° 0 mm 2 m/S 743 mmHg 80%
    05:00 +20°C° 0 mm 2 m/S 743 mmHg 80%
    06:00 +23°C° 0 mm 2 m/S 743 mmHg 74%
    07:00 +25°C° 0 mm 2 m/S 743 mmHg 68%
    08:00 +27°C° 0 mm 1 m/S 743 mmHg 62%
    09:00 +28°C° 0,7 mm 1 m/S 743 mmHg 57%
    10:00 +29°C° 0,7 mm 1 m/S 743 mmHg 53%
    11:00 +31°C° 0,7 mm 1 m/S 743 mmHg 48%
    12:00 +31°C° 0 mm 2 m/S 743 mmHg 48%
    13:00 +31°C° 0 mm 3 m/S 742 mmHg 47%
    14:00 +31°C° 0 mm 3 m/S 742 mmHg 46%
    15:00 +31°C° 0 mm 3 m/S 742 mmHg 48%
    16:00 +30°C° 0 mm 3 m/S 742 mmHg 51%
    17:00 +30°C° 0 mm 3 m/S 741 mmHg 53%
    18:00 +28°C° 0,1 mm 3 m/S 741 mmHg 60%
    19:00 +26°C° 0,1 mm 3 m/S 741 mmHg 67%
    20:00 +24°C° 0,1 mm 3 m/S 741 mmHg 74%
    21:00 +22°C° 0,5 mm 3 m/S 741 mmHg 77%
    22:00 +21°C° 0,5 mm 3 m/S 741 mmHg 80%
    23:00 +21°C° 0,5 mm 2 m/S 741 mmHg 82%

    Morgen, 23 Juni, Samstag

    Zeit Temperatur Niederschläge Wind Luftdruck Luftfeuchtigkeit
    00:00 +20°C° 0,5 mm 4 m/S 742 mmHg 85%
    01:00 +20°C° 0,5 mm 6 m/S 742 mmHg 88%
    02:00 +18°C° 0,5 mm 8 m/S 742 mmHg 90%
    03:00 +18°C° 0,1 mm 8 m/S 742 mmHg 90%
    04:00 +17°C° 0,1 mm 9 m/S 742 mmHg 90%
    05:00 +16°C° 0,1 mm 9 m/S 743 mmHg 90%
    06:00 +16°C° 0 mm 9 m/S 743 mmHg 86%
    07:00 +16°C° 0 mm 9 m/S 743 mmHg 82%
    08:00 +16°C° 0 mm 9 m/S 744 mmHg 79%
    09:00 +17°C° 0 mm 9 m/S 744 mmHg 74%
    10:00 +18°C° 0 mm 9 m/S 745 mmHg 69%
    11:00 +19°C° 0 mm 9 m/S 745 mmHg 64%
    12:00 +20°C° 0 mm 8 m/S 745 mmHg 63%
    13:00 +20°C° 0 mm 8 m/S 745 mmHg 63%
    14:00 +20°C° 0 mm 8 m/S 745 mmHg 62%
    15:00 +20°C° 0 mm 7 m/S 745 mmHg 61%
    16:00 +21°C° 0 mm 7 m/S 745 mmHg 61%
    17:00 +21°C° 0 mm 6 m/S 745 mmHg 60%
    18:00 +19°C° 0 mm 5 m/S 745 mmHg 63%
    19:00 +18°C° 0 mm 4 m/S 746 mmHg 66%
    20:00 +17°C° 0 mm 3 m/S 746 mmHg 69%
    21:00 +16°C° 0 mm 3 m/S 746 mmHg 70%
    22:00 +16°C° 0 mm 3 m/S 746 mmHg 70%
    23:00 +15°C° 0 mm 2 m/S 747 mmHg 70%

    übermorgen, 24 Juni, Sonntag

    Zeit Temperatur Niederschläge Wind Luftdruck Luftfeuchtigkeit
    00:00 +15°C° 0 mm 2 m/S 747 mmHg 72%
    01:00 +14°C° 0 mm 2 m/S 747 mmHg 73%
    02:00 +14°C° 0 mm 2 m/S 747 mmHg 74%
    03:00 +13°C° 0 mm 2 m/S 747 mmHg 76%
    04:00 +13°C° 0 mm 2 m/S 747 mmHg 77%
    05:00 +12°C° 0 mm 3 m/S 747 mmHg 78%
    06:00 +14°C° 0 mm 3 m/S 747 mmHg 72%
    07:00 +17°C° 0 mm 3 m/S 748 mmHg 66%
    08:00 +19°C° 0 mm 3 m/S 748 mmHg 59%
    09:00 +20°C° 0 mm 2 m/S 748 mmHg 55%
    10:00 +23°C° 0 mm 2 m/S 748 mmHg 51%
    11:00 +24°C° 0 mm 2 m/S 748 mmHg 47%
    12:00 +24°C° 0 mm 3 m/S 748 mmHg 47%
    13:00 +24°C° 0 mm 3 m/S 748 mmHg 47%
    14:00 +24°C° 0 mm 3 m/S 747 mmHg 47%
    15:00 +24°C° 0 mm 3 m/S 747 mmHg 48%
    16:00 +24°C° 0 mm 3 m/S 747 mmHg 50%
    17:00 +24°C° 0 mm 3 m/S 747 mmHg 52%
    18:00 +21°C° 0 mm 3 m/S 747 mmHg 58%
    19:00 +20°C° 0 mm 3 m/S 747 mmHg 64%
    20:00 +18°C° 0 mm 3 m/S 747 mmHg 70%
    21:00 +17°C° 0 mm 3 m/S 747 mmHg 72%
    22:00 +17°C° 0 mm 2 m/S 747 mmHg 73%
    23:00 +16°C° 0 mm 2 m/S 748 mmHg 75%

    25 Juni, Montag

    Zeit Temperatur Niederschläge Wind Luftdruck Luftfeuchtigkeit
    00:00 +16°C° 0 mm 2 m/S 748 mmHg 76%
    01:00 +15°C° 0 mm 2 m/S 747 mmHg 77%
    02:00 +15°C° 0 mm 2 m/S 747 mmHg 78%
    03:00 +15°C° 0 mm 2 m/S 747 mmHg 77%
    04:00 +15°C° 0 mm 2 m/S 747 mmHg 77%
    05:00 +15°C° 0 mm 2 m/S 747 mmHg 77%
    06:00 +17°C° 0 mm 3 m/S 747 mmHg 69%
    07:00 +19°C° 0 mm 3 m/S 747 mmHg 61%
    08:00 +21°C° 0 mm 4 m/S 748 mmHg 54%
    09:00 +22°C° 0 mm 4 m/S 748 mmHg 51%
    10:00 +23°C° 0 mm 5 m/S 748 mmHg 47%
    11:00 +26°C° 0 mm 5 m/S 748 mmHg 44%
    12:00 +26°C° 0 mm 6 m/S 747 mmHg 45%
    13:00 +26°C° 0 mm 6 m/S 747 mmHg 45%
    14:00 +27°C° 0 mm 6 m/S 747 mmHg 45%
    15:00 +26°C° 0 mm 6 m/S 747 mmHg 48%
    16:00 +26°C° 0 mm 6 m/S 747 mmHg 50%
    17:00 +26°C° 0 mm 6 m/S 746 mmHg 53%
    18:00 +23°C° 0 mm 6 m/S 746 mmHg 60%
    19:00 +21°C° 0 mm 5 m/S 747 mmHg 67%
    20:00 +20°C° 0 mm 5 m/S 747 mmHg 74%
    21:00 +19°C° 0 mm 5 m/S 747 mmHg 77%
    22:00 +19°C° 0 mm 5 m/S 747 mmHg 80%
    23:00 +17°C° 0 mm 5 m/S 746 mmHg 83%

    26 Juni, Dienstag

    Zeit Temperatur Niederschläge Wind Luftdruck Luftfeuchtigkeit
    00:00 +17°C° 0 mm 5 m/S 746 mmHg 83%
    01:00 +17°C° 0 mm 5 m/S 746 mmHg 83%
    02:00 +17°C° 0 mm 6 m/S 746 mmHg 83%
    03:00 +17°C° 0 mm 6 m/S 746 mmHg 81%
    04:00 +17°C° 0 mm 6 m/S 745 mmHg 79%
    05:00 +17°C° 0 mm 6 m/S 745 mmHg 77%
    06:00 +20°C° 0 mm 7 m/S 745 mmHg 71%
    07:00 +22°C° 0 mm 8 m/S 745 mmHg 64%
    08:00 +24°C° 0 mm 8 m/S 745 mmHg 58%
    09:00 +26°C° 0 mm 9 m/S 745 mmHg 56%
    10:00 +27°C° 0 mm 9 m/S 745 mmHg 53%
    11:00 +28°C° 0 mm 10 m/S 745 mmHg 51%
    12:00 +28°C° 0 mm 10 m/S 745 mmHg 50%
    13:00 +28°C° 0 mm 10 m/S 744 mmHg 50%
    14:00 +28°C° 0 mm 10 m/S 744 mmHg 50%
    15:00 +26°C° 0,1 mm 10 m/S 744 mmHg 56%
    16:00 +24°C° 0,1 mm 9 m/S 743 mmHg 62%
    17:00 +23°C° 0,1 mm 9 m/S 743 mmHg 69%
    18:00 +22°C° 0,5 mm 8 m/S 743 mmHg 71%
    19:00 +21°C° 0,5 mm 8 m/S 743 mmHg 73%
    20:00 +21°C° 0,5 mm 7 m/S 743 mmHg 76%
    21:00 +21°C° 1 mm 7 m/S 743 mmHg 75%
    22:00 +20°C° 1 mm 7 m/S 743 mmHg 75%
    23:00 +20°C° 1 mm 6 m/S 743 mmHg 75%

    27 Juni, Mittwoch

    Zeit Temperatur Niederschläge Wind Luftdruck Luftfeuchtigkeit
    00:00 +20°C° 2,1 mm 6 m/S 743 mmHg 76%
    01:00 +19°C° 2,1 mm 5 m/S 742 mmHg 78%
    02:00 +19°C° 2,1 mm 5 m/S 742 mmHg 79%
    03:00 +19°C° 2,6 mm 5 m/S 742 mmHg 82%
    04:00 +19°C° 2,6 mm 6 m/S 742 mmHg 84%
    05:00 +19°C° 2,6 mm 6 m/S 742 mmHg 87%
    06:00 +19°C° 3,6 mm 6 m/S 742 mmHg 88%
    07:00 +18°C° 3,6 mm 7 m/S 742 mmHg 89%
    08:00 +18°C° 3,6 mm 7 m/S 742 mmHg 91%
    09:00 +18°C° 2,7 mm 7 m/S 742 mmHg 90%
    10:00 +18°C° 2,7 mm 7 m/S 742 mmHg 90%
    11:00 +18°C° 2,7 mm 7 m/S 743 mmHg 89%
    12:00 +18°C° 1 mm 7 m/S 743 mmHg 89%
    13:00 +18°C° 1 mm 7 m/S 743 mmHg 89%
    14:00 +18°C° 1 mm 7 m/S 743 mmHg 89%
    15:00 +18°C° 0,7 mm 7 m/S 743 mmHg 89%
    16:00 +19°C° 0,7 mm 6 m/S 743 mmHg 89%
    17:00 +19°C° 0,7 mm 6 m/S 743 mmHg 89%
    18:00 +19°C° 0,2 mm 6 m/S 743 mmHg 90%
    19:00 +19°C° 0,2 mm 5 m/S 743 mmHg 90%
    20:00 +19°C° 0,2 mm 5 m/S 743 mmHg 90%
    21:00 +17°C° 0,1 mm 5 m/S 743 mmHg 91%
    22:00 +17°C° 0,1 mm 5 m/S 743 mmHg 91%
    23:00 +17°C° 0,1 mm 5 m/S 744 mmHg 92%
    Mehr zeigen